Flag for Germany Weather past 2 weeks in Görlitz, Saxony, Germany

Now
36 °F

Clear.


Feels Like: 32 °F
Forecast: 41 / 56 °F
Wind: 5 mph from South

Location: Goerlitz

Current Time: Oct 25, 2014 at 6:19:51 AM

Latest Report: Oct 25, 2014 at 6:00 AM


Visibility: 6 mi

Pressure: 30.20 "Hg

Humidity: 93%

Dew point: 35 °F

Location of GörlitzLocation

Historic Weather in Görlitz — Graph

°F

Görlitz temperature yesterday

Maximum temperature yesterday: 48 °F (at 4:00 PM)
Minimum temperature yesterday: 38 °F (at 11:00 PM)
Average temperature yesterday: 43 °F

Past Weeks' High & Low Weather Summary

 TemperatureHumidityPressure
High67 °F (Oct 13, 2:00 PM)98% (Oct 11, 3:00 AM)30.31 "Hg (Oct 11, 3:00 AM)
Low36 °F (Oct 25, 5:00 AM)64% (Oct 20, 3:00 PM)29.47 "Hg (Oct 22, 12:00 AM)
Average54 °F88%29.94 "Hg
* Reported Oct 10 5:00 AM — Oct 25 5:00 AM, Görlitz, Weather by CustomWeather, © 2014

Note: Actual official high and low records may vary slightly from our data, if they occured in-between our weather recording intervals... More about our weather records

Advertising

Görlitz weather history for previous 24 hours

 ConditionsComfort  
Time TempWeatherWind HumidityBarometerVisibility
5:00 AM
Oct 25
36 °FFog.3 mph97%30.21 "Hg6 mi
4:00 AM37 °FFog.2 mph98%30.22 "Hg4 mi
3:00 AM38 °FFog.1 mph96%30.22 "Hg2 mi
2:00 AM39 °FFog.1 mph96%30.23 "Hg2 mi
1:00 AM38 °FFog.2 mph95%30.24 "Hg4 mi
12:00 AM37 °FFog.3 mph93%30.24 "Hg4 mi
11:00 PM
Oct 24
38 °FFog.3 mph93%30.25 "Hg3 mi
10:00 PM39 °FFog.3 mph95%30.25 "Hg2 mi
9:00 PM40 °FFog.3 mph97%30.26 "Hg2 mi
8:00 PM40 °FFog.3 mph97%30.26 "Hg2 mi
7:00 PM40 °FFog.2 mph94%30.26 "Hg2 mi
6:00 PM44 °FFog.2 mph93%30.25 "Hg4 mi
5:00 PM46 °FPartly sunny.3 mph89%30.24 "Hg8 mi
4:00 PM48 °FPartly sunny.2 mph87%30.25 "Hg8 mi
3:00 PM47 °FPartly sunny.2 mph86%30.26 "Hg8 mi
2:00 PM45 °FLow clouds.3 mph90%30.28 "Hg7 mi
1:00 PM44 °FLow clouds.3 mph92%30.30 "Hg6 mi
12:00 PM45 °FLow clouds.2 mph91%30.31 "Hg7 mi
11:00 AM44 °FLow clouds.2 mph92%30.30 "Hg7 mi
10:00 AM43 °FLow clouds.3 mph94%30.31 "Hg6 mi
9:00 AM42 °FFog.2 mph97%30.29 "Hg4 mi
8:00 AM42 °FFog.3 mph98%30.29 "Hg2 mi
7:00 AM42 °FLow clouds.2 mph98%30.28 "Hg2 mi
6:00 AM42 °FDrizzle. Low clouds.2 mph97%30.29 "Hg1 mi
Weather by CustomWeather, © 2014

See weather overviewHow to use our weather pages